Sylvania, GA

7:45 PM EDT on May 26, 2017 (GMT -0400)
Plantation

Weather History for KJYL - March, 2013

Change the Weather History Date:

Sunday, March 17, 2013

  Actual Average (KSAV) Record (KSAV)
Temperature  
Mean Temperature 66 °F -  
Max Temperature 75 °F 68 °F 89 °F (1945)
Min Temperature 56 °F 46 °F 29 °F (1954)
Growing Degree Days 16 (Base 50)    
Moisture  
Dew Point 56 °F    
Average Humidity 68    
Maximum Humidity 94    
Minimum Humidity 49    
Precipitation  
Precipitation 0.00 in - - ()
Sea Level Pressure  
Sea Level Pressure 30.02 in    
Wind  
Wind Speed 6 mph (WSW)    
Max Wind Speed 13 mph    
Max Gust Speed 23 mph    
Visibility 10 miles    
Events      
Averages and records for this station are not official NWS values.
T = Trace of Precipitation, MM = Missing Value Source: NWS Daily Summary

Daily Weather History Graph

Daily Weather History Graph

Search for Another Location

Airport or City:

Trip Planner

Search our weather history database for the weather conditions in past years. The results will help you decide how hot, cold, wet, or windy it might be!

Date:

Astronomy

Mar. 17, 2013 Rise Set
Actual Time 7:33 AM EDT 7:35 PM EDT
Civil Twilight 7:09 AM EDT 8:00 PM EDT
Nautical Twilight 6:40 AM EDT 8:29 PM EDT
Astronomical Twilight 6:11 AM EDT 8:58 PM EDT
Moon 11:03 AM EDT (3/17) 12:25 AM EDT (3/17)
Length of Visible Light 12h 51m
Length of Day
12h 02m
Waxing Crescent, 31% of the Moon is Illuminated
Mar 17
Waxing Crescent
Mar 19
First Quarter
Mar 27
Full
Apr 3
Last Quarter
Apr 10
New

Hourly Weather History & Observations

Time (EDT) Temp. Dew Point Humidity Pressure Visibility Wind Dir Wind Speed Gust Speed Precip Events Conditions
12:15 AM 66.2 °F 49.1 °F 54% 30.00 in 10.0 mi WSW 5.8 mph - N/A   Clear
12:35 AM 66.7 °F 49.6 °F 54% 30.00 in 10.0 mi WSW 5.8 mph - N/A   Clear
12:55 AM 66.2 °F 50.4 °F 57% 30.00 in 10.0 mi WSW 6.9 mph - N/A   Clear
1:15 AM 65.8 °F 50.9 °F 58% 30.00 in 10.0 mi WSW 6.9 mph - N/A   Clear
1:35 AM 65.7 °F 51.8 °F 61% 30.00 in 10.0 mi WSW 10.4 mph - N/A   Clear
1:55 AM 65.3 °F 52.7 °F 64% 30.00 in 10.0 mi West 8.1 mph - N/A   Clear
2:15 AM 64.8 °F 53.6 °F 67% 30.00 in 10.0 mi West 6.9 mph - N/A   Clear
2:35 AM 64.4 °F 54.0 °F 69% 30.01 in 10.0 mi West 6.9 mph - N/A   Clear
2:55 AM 64.4 °F 54.1 °F 69% 30.01 in 10.0 mi West 6.9 mph - N/A   Clear
3:15 AM 63.7 °F 54.0 °F 71% 30.01 in 10.0 mi West 5.8 mph - N/A   Clear
3:35 AM 63.5 °F 54.1 °F 72% 30.01 in 10.0 mi West 4.6 mph - N/A   Clear
3:55 AM 62.6 °F 54.0 °F 73% 30.01 in 10.0 mi West 3.5 mph - N/A   Clear
4:15 AM 62.1 °F 54.1 °F 75% 30.01 in 10.0 mi West 4.6 mph - N/A   Clear
4:35 AM 61.3 °F 54.1 °F 77% 30.01 in 10.0 mi WSW 3.5 mph - N/A   Clear
4:55 AM 60.8 °F 54.1 °F 79% 30.01 in 10.0 mi Calm Calm - N/A   Clear
5:15 AM 59.9 °F 54.3 °F 82% 30.01 in 10.0 mi WSW 3.5 mph - N/A   Clear
5:35 AM 59.2 °F 54.5 °F 84% 30.01 in 10.0 mi WSW 3.5 mph - N/A   Clear
5:55 AM 58.8 °F 54.5 °F 86% 30.02 in 10.0 mi WSW 3.5 mph - N/A   Clear
6:15 AM 58.3 °F 54.7 °F 88% 30.03 in 10.0 mi WSW 3.5 mph - N/A   Clear
6:35 AM 58.1 °F 54.7 °F 88% 30.03 in 10.0 mi WSW 3.5 mph - N/A   Clear
6:55 AM 57.6 °F 54.7 °F 90% 30.04 in 10.0 mi WSW 3.5 mph - N/A   Clear
7:15 AM 57.2 °F 54.9 °F 92% 30.04 in 10.0 mi WSW 3.5 mph - N/A   Clear
7:55 AM 56.7 °F 55.0 °F 94% 30.05 in 10.0 mi WSW 3.5 mph - N/A   Clear
8:15 AM 57.2 °F 55.4 °F 94% 30.05 in 10.0 mi WSW 3.5 mph - N/A   Clear
8:35 AM 58.3 °F 55.9 °F 92% 30.06 in 10.0 mi WSW 3.5 mph - N/A   Clear
8:55 AM 59.9 °F 56.5 °F 88% 30.06 in 10.0 mi WSW 4.6 mph - N/A   Clear
9:15 AM 60.8 °F 57.0 °F 87% 30.06 in 10.0 mi West 8.1 mph - N/A   Clear
9:35 AM 63.0 °F 58.1 °F 84% 30.07 in 10.0 mi West 8.1 mph - N/A   Clear
9:55 AM 64.4 °F 58.5 °F 81% 30.07 in 10.0 mi West 9.2 mph - N/A   Clear
10:15 AM 65.3 °F 58.8 °F 80% 30.07 in 10.0 mi West 6.9 mph - N/A   Clear
10:35 AM 67.3 °F 59.2 °F 75% 30.07 in 10.0 mi WSW 6.9 mph - N/A   Clear
10:55 AM 68.7 °F 59.7 °F 73% 30.07 in 10.0 mi West 8.1 mph 17.3 mph N/A   Clear
11:15 AM 69.4 °F 59.2 °F 70% 30.07 in 10.0 mi West 12.7 mph 19.6 mph N/A   Clear
11:35 AM 70.7 °F 59.2 °F 67% 30.06 in 10.0 mi WSW 10.4 mph 17.3 mph N/A   Clear
11:55 AM 71.6 °F 59.0 °F 64% 30.06 in 10.0 mi West 8.1 mph 18.4 mph N/A   Scattered Clouds
12:15 PM 72.3 °F 57.9 °F 60% 30.05 in 10.0 mi West 10.4 mph 17.3 mph N/A   Scattered Clouds
12:35 PM 73.4 °F 57.2 °F 57% 30.05 in 10.0 mi West 9.2 mph 19.6 mph N/A   Scattered Clouds
12:55 PM 74.1 °F 57.2 °F 55% 30.04 in 10.0 mi West 10.4 mph 17.3 mph N/A   Scattered Clouds
1:15 PM 74.1 °F 57.0 °F 55% 30.03 in 10.0 mi WSW 10.4 mph 18.4 mph N/A   Scattered Clouds
1:35 PM 74.5 °F 56.7 °F 54% 30.02 in 10.0 mi West 9.2 mph - N/A   Scattered Clouds
1:55 PM 74.5 °F 57.0 °F 54% 30.02 in 10.0 mi West 8.1 mph - N/A   Mostly Cloudy
2:15 PM 74.7 °F 56.3 °F 53% 30.01 in 10.0 mi West 10.4 mph 18.4 mph N/A   Mostly Cloudy
2:35 PM 75.4 °F 54.9 °F 49% 30.00 in 10.0 mi WSW 10.4 mph 20.7 mph N/A   Scattered Clouds
2:55 PM 75.2 °F 55.6 °F 50% 29.99 in 10.0 mi WSW 9.2 mph 21.9 mph N/A   Clear
3:15 PM 75.2 °F 56.1 °F 51% 29.99 in 10.0 mi West 9.2 mph 23.0 mph N/A   Scattered Clouds
3:35 PM 74.8 °F 56.7 °F 53% 29.98 in 10.0 mi WSW 10.4 mph 17.3 mph N/A   Scattered Clouds
3:55 PM 74.5 °F 55.9 °F 52% 29.97 in 10.0 mi West 8.1 mph 18.4 mph N/A   Scattered Clouds
4:15 PM 74.1 °F 55.2 °F 52% 29.98 in 10.0 mi West 9.2 mph 17.3 mph N/A   Scattered Clouds
4:35 PM 73.6 °F 56.3 °F 55% 29.98 in 10.0 mi WSW 8.1 mph - N/A   Scattered Clouds
4:55 PM 73.4 °F 56.1 °F 55% 29.98 in 10.0 mi WSW 10.4 mph - N/A   Mostly Cloudy
5:15 PM 73.4 °F 56.5 °F 55% 29.98 in 10.0 mi WSW 5.8 mph - N/A   Mostly Cloudy
5:35 PM 72.9 °F 56.1 °F 56% 29.97 in 10.0 mi WSW 3.5 mph - N/A   Mostly Cloudy
5:55 PM 72.9 °F 56.8 °F 57% 29.97 in 10.0 mi WSW 3.5 mph - N/A   Scattered Clouds
6:15 PM 72.5 °F 56.7 °F 57% 29.98 in 10.0 mi WSW 3.5 mph - N/A   Clear
6:35 PM 72.1 °F 56.8 °F 58% 29.99 in 10.0 mi WSW 3.5 mph - N/A   Clear
6:55 PM 71.8 °F 57.0 °F 60% 29.99 in 10.0 mi WSW 3.5 mph - N/A   Scattered Clouds
7:15 PM 71.2 °F 57.2 °F 61% 29.99 in 10.0 mi WSW 4.6 mph - N/A   Scattered Clouds
7:35 PM 70.9 °F 57.2 °F 62% 30.00 in 10.0 mi Calm Calm - N/A   Clear
7:55 PM 70.2 °F 57.4 °F 64% 30.01 in 10.0 mi SW 3.5 mph - N/A   Clear
8:15 PM 70.0 °F 57.6 °F 65% 30.01 in 10.0 mi SW 3.5 mph - N/A   Mostly Cloudy
8:35 PM 70.0 °F 57.6 °F 65% 30.01 in 10.0 mi SW 4.6 mph - N/A   Overcast
8:55 PM 69.6 °F 57.7 °F 66% 30.01 in 10.0 mi Calm Calm - N/A   Overcast
9:15 PM 68.7 °F 57.9 °F 68% 30.01 in 10.0 mi SSW 3.5 mph - N/A   Scattered Clouds
9:35 PM 68.2 °F 58.1 °F 70% 30.02 in 10.0 mi Calm Calm - N/A   Scattered Clouds
9:55 PM 68.2 °F 57.9 °F 70% 30.03 in 10.0 mi SW 3.5 mph - N/A   Mostly Cloudy
10:15 PM 68.2 °F 57.9 °F 70% 30.04 in 10.0 mi SW 3.5 mph - N/A   Overcast
10:55 PM 67.3 °F 58.1 °F 72% 30.04 in 10.0 mi SSW 3.5 mph - N/A   Overcast
11:15 PM 67.1 °F 57.7 °F 72% 30.05 in 10.0 mi SSW 5.8 mph - N/A   Overcast
11:35 PM 67.6 °F 57.6 °F 70% 30.04 in 10.0 mi SW 5.8 mph - N/A   Light Drizzle
11:55 PM 67.1 °F 58.1 °F 73% 30.04 in 10.0 mi SW 3.5 mph - N/A   Light Drizzle